KAZEOSAT 1

Last updated on Thu Mar 05 2026 00:02:39 GMT+0000 (Coordinated Universal Time)

1 39731U 14024A 26063.59622618 .00000575 00000+0 18831-3 0 9990 2 39731 98.3298 138.6130 0001076 80.8363 279.2949 14.42033312623486
UTC large
Height (km)
Speed (km/s)
/
Latitude / Longitude
Inclination (degrees)
Orbital Period (minutes)
Azimuth
Elevation
Range (km)
Doppler Factor

Next 0 passes for location: London (51.5072 / 0.1276)

Sorry there are no passes over London.